This is the latest recevied weather packets stored in our database for station/object DH4SBM. If no packets are shown the sender has not sent any weather packets the latest 10 day(s).
| Time | Temp. | Humidity | Pressure | Rain* | Wind** | Luminosity | Snow |
|---|---|---|---|---|---|---|---|
| 1778007343 | 14.44° C | 89% | 1008.4 hPa | 0.51 mm | - | 0 W/m² | - |
| 1778006743 | 14.44° C | 88% | 1008.6 hPa | 0.76 mm | - | 0 W/m² | - |
| 1778006218 | 14.44° C | 88% | 1008.5 hPa | 0.76 mm | - | 0 W/m² | - |
| 1778005618 | 14.44° C | 88% | 1008.4 hPa | 0.76 mm | - | 7 W/m² | - |
| 1778005018 | 15° C | 87% | 1008.3 hPa | 0.76 mm | - | 5 W/m² | - |
| 1778004418 | 15° C | 87% | 1008.2 hPa | 0.51 mm | - | 7 W/m² | - |
| 1778003818 | 15° C | 86% | 1008.2 hPa | 0.25 mm | - | 11 W/m² | - |
| 1778003218 | 15° C | 86% | 1008.6 hPa | 0 mm | - | 7 W/m² | - |
| 1778002618 | 15° C | 84% | 1008.7 hPa | 0 mm | - | 5 W/m² | - |
| 1778002018 | 15.56° C | 83% | 1008.6 hPa | 0 mm | - | 12 W/m² | - |
| 1778001418 | 15.56° C | 83% | 1008.6 hPa | 0 mm | - | 39 W/m² | - |
| 1778000819 | 15.56° C | 82% | 1008.5 hPa | 0 mm | - | 54 W/m² | - |
| 1778000219 | 15.56° C | 83% | 1008.3 hPa | 0 mm | - | 65 W/m² | - |
| 1777999619 | 15.56° C | 84% | 1008.3 hPa | 0 mm | - | 86 W/m² | - |
| 1777999019 | 15° C | 85% | 1008.2 hPa | 0 mm | - | 90 W/m² | - |
| 1777998419 | 15° C | 85% | 1008.2 hPa | 0 mm | - | 105 W/m² | - |
| 1777997819 | 15° C | 86% | 1008.3 hPa | 0.25 mm | - | 116 W/m² | - |
| 1777997219 | 14.44° C | 87% | 1008.2 hPa | 0.25 mm | - | 237 W/m² | - |
| 1777996619 | 14.44° C | 87% | 1007.9 hPa | 0.51 mm | - | 234 W/m² | - |
| 1777996019 | 14.44° C | 87% | 1008.3 hPa | 0.51 mm | - | 149 W/m² | - |
| 1777995419 | 14.44° C | 88% | 1008.7 hPa | 0.51 mm | - | 209 W/m² | - |
| 1777994819 | 13.89° C | 88% | 1008.8 hPa | 0.51 mm | - | 104 W/m² | - |
| 1777994219 | 13.89° C | 88% | 1008.8 hPa | 0.51 mm | - | 70 W/m² | - |
| 1777993619 | 13.89° C | 89% | 1008.8 hPa | 0.76 mm | - | 63 W/m² | - |
| 1777993019 | 13.89° C | 89% | 1008.8 hPa | 1.02 mm | - | 63 W/m² | - |
* Rain latest hour (hover to see other rain measurements)
** Current wind speed in m/s (hover to see current wind gust speed)